Location: Unspecified
(33.9239°N, 118.0544°W)
Time: 13:42:08
(UTC-08:00)

Cosmos 2058 - Visible Passes

Search period start: 23 January 2018 00:00
Search period end: 02 February 2018 00:00
Orbit: 564 x 584 km, 82.5° (Epoch: 22 January)

Date Brightness Start Highest point End Pass type
(mag) Time Alt. Az. Time Alt. Az. Time Alt. Az.
23 Jan 5.5 04:50:32 10° NNE 04:53:44 21° ENE 04:56:54 10° SE visible
23 Jan 4.1 06:27:14 10° NW 06:30:32 23° W 06:33:50 10° SW visible
23 Jan 4.5 18:46:36 10° SSW 18:50:27 36° W 18:54:21 10° NNW visible
24 Jan 5.0 04:53:24 10° NNE 04:57:02 28° ENE 05:00:38 10° SE visible
24 Jan 5.1 18:50:10 10° SW 18:53:43 27° WNW 18:57:19 10° NNW visible
25 Jan 4.3 04:56:23 10° N 05:00:18 38° E 05:04:11 10° SSE visible
25 Jan 5.6 18:53:54 10° SW 18:57:01 20° WNW 19:00:09 10° NNW visible
26 Jan 3.7 04:59:28 10° N 05:03:33 52° E 05:07:36 10° SSE visible
26 Jan 5.9 18:57:53 10° WSW 19:00:19 15° WNW 19:02:47 10° NW visible
27 Jan 3.0 05:03:59 20° N 05:06:47 74° E 05:10:56 10° S visible
27 Jan 6.2 19:02:26 10° W 19:03:39 11° WNW 19:04:53 10° NW visible
28 Jan 2.7 05:08:35 41° NNW 05:10:00 79° W 05:14:08 10° S visible
29 Jan 2.9 05:13:16 56° W 05:13:16 56° W 05:17:15 10° S visible
30 Jan 4.0 05:17:56 28° SW 05:17:56 28° SW 05:20:14 10° SSW visible
31 Jan 5.1 05:22:35 13° SSW 05:22:35 13° SSW 05:23:07 10° SSW visible
